+ View the NASA Portal
+ Center for Near-Earth Object Studies
IMPORTANT:
The SSD Announcement email list is now available. Major changes are coming in the near future, including possible hostname and/or URL changes. To be notified of such changes, subscribe to this email list.
Please visit
this page
for more details.
Don't show this message again
JPL Small-Body Database Browser
Search:
[
help
]
469190 (2016 GA132)
Classification:
Main-belt Asteroid
SPK-ID:
2469190
[
Ephemeris
|
Orbit Diagram
|
Orbital Elements
|
Mission Design
|
Physical Parameters
|
Discovery Circumstances
]
[ show orbit diagram ]
Orbital Elements at Epoch 2458600.5 (2019-Apr-27.0) TDB
Reference:
JPL 10
(heliocentric ecliptic J2000)
Element
Value
Uncertainty (1-sigma)
Units
e
.1025923848838886
8.6607e-08
a
2.622693117826922
4.4917e-08
au
q
2.353624776050496
2.4433e-07
au
i
9.921300942711406
1.2111e-05
deg
node
69.5718727655514
8.4684e-05
deg
peri
226.4544776066038
0.00012162
deg
M
167.9178866128838
8.3722e-05
deg
t
p
2457876.874103388972
(2017-May-03.37410339)
0.00036724
TDB
period
1551.385192100091
4.25
3.9854e-05
1.091e-07
d
yr
n
.2320506872394936
5.9612e-09
deg/d
Q
2.891761459603347
4.9525e-08
au
Orbit Determination Parameters
# obs. used (total)
83
data-arc span
5795 days (15.87 yr)
first obs. used
2003-01-28
last obs. used
2018-12-10
planetary ephem.
DE431
SB-pert. ephem.
SB431-N16
condition code
0
norm. resid. RMS
.59334
source
ORB
producer
Otto Matic
solution date
2019-Jul-15 06:58:05
Additional Information
Earth MOID
= 1.349 au
Jupiter MOID
= 2.26497 au
T_jup
= 3.375
[ show covariance matrix ]
[
Ephemeris
|
Orbit Diagram
|
Orbital Elements
|
Mission Design
|
Physical Parameters
|
Discovery Circumstances
]
Physical Parameter Table
Parameter
Symbol
Value
Units
Sigma
Reference
Notes
absolute magnitude
H
16.7
n/a
MPO380659
469190 (2016 GA132)
Discovered 2005-Oct-27 by Spacewatch at Kitt Peak
Reference:
Last Updated:
2016-06-21
Alternate Designations
2016 GA132
= 2005 UN401
[
Ephemeris
|
Orbit Diagram
|
Orbital Elements
|
Mission Design
|
Physical Parameters
|
Discovery Circumstances
]
2019-Dec-14 02:40 UT
(server date/time)
Site Manager:
Ryan S. Park
Webmaster
:
Alan B. Chamberlin